Savanna, IA

10:05 AM CDT on August 17, 2017 (GMT -0500)
Tri-Township

Weather History for KSFY - June, 2013

Change the Weather History Date:

Thursday, June 13, 2013

  Actual Average (KCWI) Record (KCWI)
Temperature  
Mean Temperature 70 °F -  
Max Temperature 80 °F 83 °F 95 °F (1976)
Min Temperature 60 °F 59 °F 44 °F (1962)
Cooling Degree Days 5    
Growing Degree Days 20 (Base 50)    
Moisture  
Dew Point 57 °F    
Average Humidity 63    
Maximum Humidity 94    
Minimum Humidity 39    
Precipitation  
Precipitation 0.05 in - - ()
Sea Level Pressure  
Sea Level Pressure 29.94 in    
Wind  
Wind Speed 8 mph (NNW)    
Max Wind Speed 14 mph    
Max Gust Speed 20 mph    
Visibility 10 miles    
Events Rain    
Averages and records for this station are not official NWS values.
T = Trace of Precipitation, MM = Missing Value Source: NWS Daily Summary

Daily Weather History Graph

Daily Weather History Graph

Search for Another Location

Airport or City:

Trip Planner

Search our weather history database for the weather conditions in past years. The results will help you decide how hot, cold, wet, or windy it might be!

Date:

Astronomy

Jun. 13, 2013 Rise Set
Actual Time 5:24 AM CDT 8:37 PM CDT
Civil Twilight 4:49 AM CDT 9:11 PM CDT
Nautical Twilight 4:05 AM CDT 9:55 PM CDT
Astronomical Twilight 3:12 AM CDT 10:49 PM CDT
Moon 10:04 AM CDT (6/13) 11:39 PM CDT (6/13)
Length of Visible Light 16h 21m
Length of Day
15h 13m
Waxing Crescent, 22% of the Moon is Illuminated
Jun 13
Waxing Crescent
Jun 16
First Quarter
Jun 23
Full
Jun 29
Last Quarter
Jul 8
New

Hourly Weather History & Observations

Time (CDT) Temp. Heat Index Dew Point Humidity Pressure Visibility Wind Dir Wind Speed Gust Speed Precip Events Conditions
12:16 AM 68.0 °F - 64.4 °F 88% 29.69 in 10.0 mi North 4.6 mph - N/A   Light Drizzle
12:36 AM 68.0 °F - 64.4 °F 88% 29.73 in 7.0 mi NW 10.4 mph - 0.02 in Rain Rain
12:57 AM 68.0 °F - 64.4 °F 88% 29.74 in 10.0 mi NW 6.9 mph - 0.05 in Rain Light Rain
1:16 AM 66.2 °F - 64.4 °F 94% 29.75 in 10.0 mi NNW 9.2 mph - N/A Rain Light Rain
1:36 AM 66.2 °F - 64.4 °F 94% 29.75 in 10.0 mi North 9.2 mph - N/A   Overcast
1:59 AM 66.2 °F - 64.4 °F 94% 29.77 in 10.0 mi North 9.2 mph - N/A   Overcast
2:17 AM 66.2 °F - 64.4 °F 94% 29.78 in 10.0 mi North 9.2 mph - N/A   Overcast
2:37 AM 66.2 °F - 62.6 °F 88% 29.80 in 10.0 mi North 13.8 mph 19.6 mph N/A   Overcast
2:56 AM 64.4 °F - 62.6 °F 94% 29.81 in 10.0 mi North 12.7 mph - N/A   Overcast
3:18 AM 64.4 °F - 62.6 °F 94% 29.82 in 10.0 mi North 10.4 mph - N/A   Overcast
3:36 AM 64.4 °F - 60.8 °F 88% 29.83 in 10.0 mi North 10.4 mph - N/A   Overcast
3:56 AM 64.4 °F - 60.8 °F 88% 29.83 in 10.0 mi North 9.2 mph 17.3 mph N/A   Mostly Cloudy
4:18 AM 62.6 °F - 59.0 °F 88% 29.84 in 10.0 mi NNW 5.8 mph - N/A   Mostly Cloudy
4:36 AM 62.6 °F - 57.2 °F 82% 29.85 in 10.0 mi North 5.8 mph - N/A   Scattered Clouds
4:58 AM 62.6 °F - 57.2 °F 82% 29.86 in 10.0 mi North 9.2 mph - N/A   Clear
5:16 AM 60.8 °F - 57.2 °F 88% 29.87 in 10.0 mi NW 5.8 mph - N/A   Clear
5:36 AM 60.8 °F - 57.2 °F 88% 29.87 in 10.0 mi NW 3.5 mph - N/A   Clear
5:56 AM 60.8 °F - 57.2 °F 88% 29.89 in 10.0 mi NW 5.8 mph - N/A   Clear
6:16 AM 62.6 °F - 57.2 °F 82% 29.91 in 10.0 mi NNW 5.8 mph - N/A   Clear
6:37 AM 62.6 °F - 55.4 °F 77% 29.92 in 10.0 mi NNW 8.1 mph - N/A   Clear
6:56 AM 64.4 °F - 57.2 °F 77% 29.92 in 10.0 mi NNW 6.9 mph - N/A   Clear
7:16 AM 64.4 °F - 57.2 °F 77% 29.92 in 10.0 mi North 6.9 mph - N/A   Clear
7:36 AM 66.2 °F - 57.2 °F 73% 29.92 in 10.0 mi North 9.2 mph - N/A   Clear
7:59 AM 66.2 °F - 57.2 °F 73% 29.94 in 10.0 mi North 9.2 mph - N/A   Clear
8:19 AM 69.8 °F - 57.2 °F 64% 29.95 in 10.0 mi NNW 8.1 mph - N/A   Clear
8:36 AM 69.8 °F - 57.2 °F 64% 29.95 in 10.0 mi North 8.1 mph - N/A   Clear
8:56 AM 71.6 °F - 55.4 °F 57% 29.96 in 10.0 mi North 9.2 mph - N/A   Clear
9:17 AM 71.6 °F - 55.4 °F 57% 29.96 in 10.0 mi North 6.9 mph - N/A   Clear
9:36 AM 73.4 °F - 55.4 °F 53% 29.98 in 10.0 mi North 6.9 mph - N/A   Clear
9:56 AM 73.4 °F - 55.4 °F 53% 29.98 in 10.0 mi North 5.8 mph - N/A   Clear
10:16 AM 73.4 °F - 55.4 °F 53% 29.99 in 10.0 mi NNW 4.6 mph - N/A   Clear
10:36 AM 75.2 °F - 55.4 °F 50% 29.99 in 10.0 mi North 5.8 mph - N/A   Clear
10:59 AM 75.2 °F - 55.4 °F 50% 30.00 in 10.0 mi North 5.8 mph - N/A   Clear
11:17 AM 75.2 °F - 55.4 °F 50% 30.00 in 10.0 mi West 5.8 mph - N/A   Clear
11:37 AM 75.2 °F - 57.2 °F 53% 30.00 in 10.0 mi WNW 4.6 mph - N/A   Clear
11:56 AM 78.8 °F - 55.4 °F 44% 30.00 in 10.0 mi West 5.8 mph - N/A   Clear
12:16 PM 75.2 °F - 55.4 °F 50% 30.00 in 10.0 mi West 6.9 mph - N/A   Mostly Cloudy
12:36 PM 77.0 °F - 55.4 °F 47% 30.00 in 10.0 mi WNW 6.9 mph - N/A   Mostly Cloudy
12:56 PM 78.8 °F - 57.2 °F 47% 30.00 in 10.0 mi WNW 8.1 mph - N/A   Mostly Cloudy
1:16 PM 78.8 °F - 55.4 °F 44% 30.00 in 10.0 mi NNW 9.2 mph 17.3 mph N/A   Mostly Cloudy
1:36 PM 80.6 °F 80.3 °F 53.6 °F 39% 30.00 in 10.0 mi North 10.4 mph - N/A   Scattered Clouds
1:56 PM 80.6 °F 80.3 °F 53.6 °F 39% 30.00 in 10.0 mi NNW 12.7 mph - N/A   Scattered Clouds
2:17 PM 78.8 °F - 53.6 °F 42% 30.00 in 10.0 mi NNW 8.1 mph - N/A   Mostly Cloudy
2:37 PM 80.6 °F 80.3 °F 53.6 °F 39% 30.00 in 10.0 mi NNW 8.1 mph - N/A   Scattered Clouds
2:56 PM 80.6 °F 80.5 °F 55.4 °F 42% 29.99 in 10.0 mi NNW 10.4 mph - N/A   Scattered Clouds
3:16 PM 78.8 °F - 53.6 °F 42% 30.00 in 10.0 mi NNW 6.9 mph - N/A   Scattered Clouds
3:36 PM 80.6 °F 80.3 °F 53.6 °F 39% 29.99 in 10.0 mi NNW 8.1 mph - N/A   Scattered Clouds
3:56 PM 80.6 °F 80.5 °F 55.4 °F 42% 29.99 in 10.0 mi North 9.2 mph - N/A   Scattered Clouds
4:16 PM 80.6 °F 80.3 °F 53.6 °F 39% 29.99 in 10.0 mi North 11.5 mph 16.1 mph N/A   Mostly Cloudy
4:37 PM 80.6 °F 80.3 °F 53.6 °F 39% 29.99 in 10.0 mi NW 9.2 mph - N/A   Scattered Clouds
4:56 PM 80.6 °F 80.3 °F 53.6 °F 39% 29.99 in 10.0 mi North 10.4 mph 17.3 mph N/A   Clear
5:17 PM 80.6 °F 80.3 °F 53.6 °F 39% 29.98 in 10.0 mi NNW 5.8 mph 9.2 mph N/A   Clear
5:36 PM 80.6 °F 80.3 °F 53.6 °F 39% 29.98 in 10.0 mi NNW 8.1 mph - N/A   Clear
5:56 PM 80.6 °F 80.3 °F 53.6 °F 39% 29.99 in 10.0 mi NNW 9.2 mph - N/A   Scattered Clouds
6:16 PM 80.6 °F 80.3 °F 53.6 °F 39% 29.99 in 10.0 mi NNW 6.9 mph - N/A   Scattered Clouds
6:36 PM 80.6 °F 80.3 °F 53.6 °F 39% 30.01 in 10.0 mi NNW 9.2 mph - N/A   Mostly Cloudy
6:57 PM 77.0 °F - 53.6 °F 44% 30.01 in 10.0 mi NW 6.9 mph - N/A   Mostly Cloudy
7:16 PM 77.0 °F - 53.6 °F 44% 30.02 in 10.0 mi NNW 5.8 mph - N/A   Scattered Clouds
7:36 PM 75.2 °F - 55.4 °F 50% 30.02 in 10.0 mi NNW 3.5 mph - N/A   Clear
7:57 PM 73.4 °F - 55.4 °F 53% 30.02 in 10.0 mi NNW 4.6 mph - N/A   Clear
8:16 PM 73.4 °F - 55.4 °F 53% 30.02 in 10.0 mi NNW 4.6 mph - N/A   Clear
8:36 PM 73.4 °F - 55.4 °F 53% 30.02 in 10.0 mi NNW 4.6 mph - N/A   Mostly Cloudy
8:56 PM 71.6 °F - 55.4 °F 57% 30.02 in 7.0 mi NNW 5.8 mph - N/A   Mostly Cloudy
9:16 PM 71.6 °F - 55.4 °F 57% 30.02 in 10.0 mi North 3.5 mph - N/A   Scattered Clouds
9:36 PM 71.6 °F - 55.4 °F 57% 30.02 in 10.0 mi North 3.5 mph - N/A   Scattered Clouds
9:56 PM 69.8 °F - 57.2 °F 64% 30.02 in 10.0 mi North 3.5 mph - N/A   Clear
10:16 PM 68.0 °F - 57.2 °F 68% 30.02 in 10.0 mi North 3.5 mph - N/A   Clear
10:36 PM 66.2 °F - 57.2 °F 73% 30.02 in 10.0 mi NNW 3.5 mph - N/A   Scattered Clouds
10:57 PM 66.2 °F - 57.2 °F 73% 30.03 in 10.0 mi NNE 4.6 mph - N/A   Clear
11:16 PM 66.2 °F - 57.2 °F 73% 30.03 in 10.0 mi NE 6.9 mph - N/A   Clear
11:36 PM 66.2 °F - 57.2 °F 73% 30.03 in 10.0 mi ENE 5.8 mph - N/A   Clear
11:56 PM 64.4 °F - 57.2 °F 77% 30.03 in 10.0 mi ENE 5.8 mph - N/A   Clear